Location: Franzen
(48.6167°N, 15.3833°E)
Time: 13:15:33
(UTC+00:00)

Transit 2A Rocket - Pass Details

Date: 08 August 2021
Orbit: 586 x 917 km, 66.7° (Epoch: 27 September)

Event Time Altitude Azimuth Distance (km) Brightness Sun altitude
Rises 19:13:08 0° 325° (NW) 3,256 9.8 -7.7°
Reaches altitude 10° 19:15:30 10° 329° (NNW) 2,376 8.8 -8.0°
Maximum altitude 19:20:58 63° 51° (NE) 945 5.4 -8.7°
Enters shadow 19:26:29 12° 131° (SE) 2,418 6.9 -9.5°
